BMCB-10 Weather Reports


time (UTC)temp
C
wind
direction
speed
KPH
gust
KPH
rain 1hr
cm
rain 24hr
cm
rain mn
cm
humidity
%
barometer
mb
20260507023010 7 0 0.0 0.0 0.00 0.86 0.00 10 1013.3
20260507022011 7 0 0.0 0.0 0.00 0.89 0.00 10 1013.3
20260507021011 7 0 0.0 0.0 0.00 0.89 0.00 10 1013.3
20260507020011 7 0 0.0 0.0 0.00 0.91 0.00 10 1013.3
20260507015010 7 0 0.0 0.0 0.00 0.94 0.00 10 1013.2
20260507014011 7 0 0.0 0.0 0.00 0.97 0.00 10 1013.2
20260507013011 7 0 0.0 0.0 0.00 0.99 0.00 10 1013.3
20260507011011 7 0 0.0 0.0 0.00 1.02 0.00 10 1013.2
20260507005011 7 0 0.0 0.0 0.00 1.09 0.00 10 1013.1
20260507004012 7 0 0.0 0.0 0.00 1.09 0.00 10 1013.1
20260507003011 7 0 0.0 0.0 0.00 1.12 0.00 10 1013.1
20260507001011 7 0 0.0 0.0 0.00 1.17 0.00 10 1013.0
20260507000013 7 0 0.0 0.0 0.00 1.19 0.00 10 1012.9
20260506233013 7 0 0.0 0.0 0.00 1.27 0.00 10 1012.8
20260506232012 8 0 0.0 0.0 0.00 1.30 0.00 10 1012.8
20260506231013 8 0 0.0 0.0 0.00 1.32 0.00 10 1012.7
20260506230013 8 0 0.0 0.0 0.00 1.35 0.00 10 1012.6
20260506225013 8 0 0.0 0.0 0.00 1.35 0.00 10 1012.6
20260506224014 8 0 0.0 0.0 0.00 1.37 0.00 10 1012.5
20260506223013 8 0 0.0 0.0 0.00 1.37 0.00 10 1012.3
20260506222013 8 0 0.0 0.0 0.00 1.37 0.00 10 1012.2
20260506221014 8 0 0.0 0.0 0.00 1.37 0.00 10 1012.1
20260506215014 8 0 0.0 0.0 0.00 1.40 1.40 10 1011.9
20260506214014 8 0 0.0 0.0 0.00 1.42 1.40 10 1011.8
20260506213013 8 0 0.0 0.0 0.00 1.45 1.40 10 1011.8
20260506212014 8 0 0.0 0.0 0.00 1.45 1.40 10 1011.7
20260506211012 8 0 0.0 0.0 0.00 1.47 1.40 10 1011.7
20260506210013 8 0 0.0 0.0 0.00 1.50 1.40 10 1011.7
20260506205014 8 0 0.0 0.0 0.00 1.52 1.40 10 1011.7
20260506204013 8 0 0.0 0.0 0.00 1.55 1.40 10 1011.7
20260506203013 8 0 0.0 0.0 0.00 1.55 1.40 10 1011.6
20260506202013 8 0 0.0 0.0 0.00 1.57 1.40 10 1011.6
20260506201012 8 0 0.0 0.0 0.00 1.57 1.40 10 1011.5
20260506200014 8 0 0.0 0.0 0.00 1.60 1.40 10 1011.4
20260506195013 8 0 0.0 0.0 0.00 1.63 1.40 10 1011.4
20260506194014 8 0 0.0 0.0 0.00 1.65 1.40 10 1011.3
20260506193013 8 0 0.0 0.0 0.00 1.65 1.40 10 1011.2
20260506192012 8 0 0.0 0.0 0.00 1.68 1.40 10 1011.2
20260506190012 8 0 0.0 0.0 0.00 1.70 1.40 10 1011.0
20260506185013 8 0 0.0 0.0 0.00 1.73 1.40 10 1010.9
20260506184012 8 0 0.0 0.0 0.00 1.73 1.40 10 1010.8
20260506183012 8 0 0.0 0.0 0.00 1.75 1.40 10 1010.7
20260506182012 8 0 0.0 0.0 0.00 1.78 1.40 10 1010.5
20260506181011 8 0 0.0 0.0 0.00 1.83 1.40 10 1010.5
20260506180012 8 0 0.0 0.0 0.00 1.83 1.40 10 1010.3
20260506175012 8 0 0.0 0.0 0.00 1.85 1.40 10 1010.3
20260506174013 8 0 0.0 0.0 0.00 1.85 1.40 10 1010.1
20260506173012 8 0 0.0 0.0 0.00 1.85 1.40 99 1010.1
20260506172012 8 0 0.0 0.0 0.00 1.85 1.40 98 1010.0
20260506165011 9 0 0.0 0.0 0.00 1.85 1.40 98 1009.9
20260506164012 9 0 0.0 0.0 0.00 1.85 1.40 98 1009.8
20260506163012 9 0 0.0 0.0 0.00 1.85 1.40 97 1009.8
20260506162012 9 0 0.0 0.0 0.00 1.85 1.40 97 1009.8
20260506161012 9 0 0.0 0.0 0.00 1.85 1.40 97 1009.8
20260506160011 9 0 0.0 0.0 0.00 1.85 1.40 96 1009.7
20260506155011 10 0 0.0 0.0 0.00 1.85 1.40 96 1009.6
20260506154013 10 0 0.0 0.0 0.00 1.85 1.40 96 1009.6
20260506153011 10 0 0.0 0.0 0.00 1.85 1.40 95 1009.5
20260506151012 10 0 0.0 0.0 0.00 1.85 1.40 95 1009.4
20260506150012 10 0 0.0 0.0 0.00 1.85 1.40 96 1009.4
20260506145013 10 0 0.0 0.0 0.00 1.85 1.40 95 1009.3
20260506144012 10 0 0.0 0.0 0.00 1.85 1.40 97 1009.3
20260506143011 10 0 0.0 0.0 0.00 1.85 1.40 97 1009.3
20260506142011 10 0 0.0 0.0 0.00 1.85 1.40 10 1009.3
20260506140012 8 0 0.0 0.0 0.00 1.85 1.40 10 1009.5
20260506135011 9 0 0.0 0.0 0.00 1.85 1.40 10 1009.4
20260506134011 9 0 0.0 0.0 0.03 1.85 1.40 10 1009.4
20260506133011 9 0 0.0 0.0 0.03 1.85 1.40 99 1009.4
20260506132011 10 0 0.0 0.0 0.03 1.88 1.40 99 1009.2
20260506131011 10 0 0.0 0.0 0.05 1.88 1.40 10 1009.1
20260506125011 10 0 0.0 0.0 0.05 1.88 1.40 10 1009.0
20260506124011 10 0 0.0 0.0 0.05 1.88 1.40 10 1008.9
20260506123011 10 0 0.0 0.0 0.05 1.85 1.37 10 1008.8
20260506122012 10 0 0.0 0.0 0.05 1.85 1.37 10 1008.7
20260506120011 10 0 0.0 0.0 0.05 1.85 1.37 10 1008.6
20260506115011 10 0 0.0 0.0 0.08 1.85 1.37 10 1008.5
20260506114011 10 0 0.0 0.0 0.08 1.85 1.37 10 1008.4
20260506113012 10 0 0.0 0.0 0.08 1.83 1.35 10 1008.4
20260506112012 10 0 0.0 0.0 0.05 1.83 1.32 10 1008.4
20260506111012 10 0 0.0 0.0 0.05 1.83 1.32 10 1008.4
20260506110012 10 0 0.0 0.0 0.05 1.80 1.30 10 1008.4
20260506105011 10 0 0.0 0.0 0.05 1.80 1.30 10 1008.3
20260506104011 10 0 0.0 0.0 0.03 1.78 1.27 10 1008.3
20260506103011 10 0 0.0 0.0 0.05 1.78 1.27 10 1008.3
20260506102012 10 0 0.0 0.0 0.03 1.75 1.27 10 1008.3
20260506101011 10 0 0.0 0.0 0.05 1.75 1.27 10 1008.1
20260506100012 10 0 0.0 0.0 0.05 1.75 1.27 10 1008.1
20260506095011 9 0 0.0 0.0 0.08 1.75 1.27 10 1008.0
20260506093012 9 0 0.0 0.0 0.15 1.75 1.27 10 1007.9
20260506092012 8 0 0.0 0.0 0.15 1.75 1.24 10 1007.9
20260506091011 8 0 0.0 0.0 0.15 1.75 1.24 10 1007.9
20260506090011 8 0 0.0 0.0 0.15 1.75 1.22 10 1007.8
20260506085012 8 0 0.0 0.0 0.15 1.73 1.19 10 1007.8
20260506084012 8 0 0.0 0.0 0.15 1.70 1.17 10 1007.7
20260506083011 8 0 0.0 0.0 0.15 1.68 1.17 10 1007.6
20260506082012 8 0 0.0 0.0 0.10 1.65 1.12 10 1007.5
20260506081012 8 0 0.0 0.0 0.10 1.63 1.09 10 1007.4
20260506073012 8 0 0.0 0.0 0.08 1.55 1.02 10 1007.1
20260506072012 8 0 0.0 0.0 0.10 1.55 1.02 10 1007.0
20260506071011 8 0 0.0 0.0 0.13 1.55 1.02 10 1007.0
20260506062012 8 0 0.0 0.0 0.15 1.45 0.94 10 1006.8
20260506061012 8 0 0.0 0.0 0.15 1.45 0.91 10 1006.7
20260506051012 8 0 0.0 0.0 0.10 1.30 0.79 10 1006.7
20260506045011 8 0 0.0 0.0 0.13 1.27 0.76 10 1006.8
20260506044012 8 0 0.0 0.0 0.10 1.27 0.74 10 1006.7
20260506043012 8 0 0.0 0.0 0.10 1.24 0.71 10 1006.7
20260506042012 8 0 0.0 0.0 0.10 1.24 0.71 10 1006.7
20260506041012 8 0 0.0 0.0 0.10 1.22 0.71 10 1006.7
20260506040012 8 0 0.0 0.0 0.08 1.19 0.69 10 1006.7
20260506035012 8 0 0.0 0.0 0.08 1.17 0.66 10 1006.8
20260506034011 8 0 0.0 0.0 0.08 1.17 0.64 10 1006.8
20260506033012 8 0 0.0 0.0 0.10 1.17 0.64 10 1006.8
20260506032012 8 0 0.0 0.0 0.10 1.14 0.61 10 1006.8
20260506030012 8 0 0.0 0.0 0.13 1.12 0.61 10 1007.0
20260506025012 8 0 0.0 0.0 0.15 1.12 0.61 10 1007.0